Trinidad, Colorado, United States (81082)
Lat: 37.17N, Lon: 104.5W
Wx Zone: COZ088
Local Info
Past Weather Observations for Friday, August 29, 2014

NOTE: This archive is for the closest National Weather Service station to Trinidad. Information may differ from the station used for current weather conditions.

Click here for Long-term Archive

Time Weather Temperature Dewpoint Humidity Pressure Winds Precip Visibility
23:54
Clear
61°F / 16°C 46°F / 8°C 59% 30.24 in
(1024 mb)
SSW 8.1 mph
(SSW 13 kph)
- 10SM
22:54
Partly Cloudy
63°F / 17°C 46°F / 8°C 56% 30.27 in
(1025 mb)
SSW 6.9 mph
(SSW 11 kph)
0.00 in
(0.00 mm)
10SM
21:54
Mostly Cloudy
Light Rain
63°F / 17°C 46°F / 8°C 56% 30.27 in
(1025 mb)
NW 8.1 mph
(NW 13 kph)
0.00 in
(0.00 mm)
10SM
21:08
Mostly Cloudy
64°F / 18°C 45°F / 7°C 49% 30.27 in
(1025 mb)
NW 9.2 mph
(NW 15 kph)
- 10SM
20:54
Mostly Cloudy
64°F / 18°C 45°F / 7°C 49% 30.24 in
(1024 mb)
NNW 13.8 mph
(NNW 22 kph)
0.00 in
(0.00 mm)
10SM
20:28
Overcast
64°F / 18°C 45°F / 7°C 49% 30.24 in
(1024 mb)
W 17.3 mph
(W 28 kph)
0.00 in
(0.00 mm)
10SM
19:54
Overcast
Light Rain
64°F / 18°C 46°F / 8°C 52% 30.18 in
(1022 mb)
N 19.6 mph
(N 32 kph)
0.00 in
(0.00 mm)
10SM
18:54
Clear
72°F / 22°C 36°F / 2°C 27% 30.12 in
(1020 mb)
SW 5.8 mph
(SW 9 kph)
- 10SM
17:54
Clear
79°F / 26°C 34°F / 1°C 20% 30.12 in
(1020 mb)
SSE 10.4 mph
(SSE 17 kph)
- 10SM
16:54
Clear
82°F / 28°C 34°F / 1°C 17% 30.09 in
(1019 mb)
Variable 3.5 mph
(Variable 6 kph)
- 10SM
15:54
Mostly Cloudy
84°F / 29°C 34°F / 1°C 16% 30.09 in
(1019 mb)
N 9.2 mph
(N 15 kph)
- 10SM
14:54
Partly Cloudy
84°F / 29°C 34°F / 1°C 16% 30.09 in
(1019 mb)
E 3.5 mph
(E 6 kph)
- 10SM
13:54
Clear
82°F / 28°C 32°F / 0°C 16% 30.12 in
(1020 mb)
W 5.8 mph
(W 9 kph)
- 10SM
12:54
Clear
82°F / 28°C 34°F / 1°C 17% 30.12 in
(1020 mb)
W 6.9 mph
(W 11 kph)
- 10SM
11:54
Clear
81°F / 27°C 34°F / 1°C 18% 30.15 in
(1021 mb)
NW 10.4 mph
(NW 17 kph)
- 10SM
10:54
Clear
81°F / 27°C 36°F / 2°C 20% 30.15 in
(1021 mb)
NNE 8.1 mph
(NNE 13 kph)
- 10SM
09:54
Clear
79°F / 26°C 36°F / 2°C 21% 30.18 in
(1022 mb)
W 9.2 mph
(W 15 kph)
- 10SM
08:54
Clear
75°F / 24°C 41°F / 5°C 29% 30.18 in
(1022 mb)
NW 11.5 mph
(NW 19 kph)
- 10SM
07:54
Clear
66°F / 19°C 43°F / 6°C 43% 30.18 in
(1022 mb)
SSW 11.5 mph
(SSW 19 kph)
- 10SM
06:54
Clear
57°F / 14°C 41°F / 5°C 55% 30.18 in
(1022 mb)
SSW 13.8 mph
(SSW 22 kph)
- 10SM
05:54
Clear
54°F / 12°C 41°F / 5°C 63% 30.15 in
(1021 mb)
SSW 16.1 mph
(SSW 26 kph)
- 10SM
04:54
Clear
54°F / 12°C 41°F / 5°C 63% 30.15 in
(1021 mb)
SSW 18.4 mph
(SSW 30 kph)
- 10SM
03:54
Clear
54°F / 12°C 43°F / 6°C 67% 30.15 in
(1021 mb)
SSW 16.1 mph
(SSW 26 kph)
- 10SM
02:54
Clear
54°F / 12°C 45°F / 7°C 72% 30.15 in
(1021 mb)
SSW 18.4 mph
(SSW 30 kph)
- 10SM
01:54
Clear
54°F / 12°C 46°F / 8°C 77% 30.15 in
(1021 mb)
SSW 17.3 mph
(SSW 28 kph)
- 10SM
00:54
Clear
54°F / 12°C 46°F / 8°C 77% 30.15 in
(1021 mb)
SSW 16.1 mph
(SSW 26 kph)
- 10SM
Time Weather Temperature Dewpoint Humidity Pressure Winds Precip Visibility


Weather for websites

WeatherForYou.com, LLC is not responsible for any damages or problems caused by this service. Current weather conditions are obtained from the closest station including government and personal stations which may have varying degrees of accuracy. Weather forecasts are derived from the NOAA NDFD. Like all things, this site belongs to Jesus Christ... He just trusts me to maintain it. If you have any questions or comments email webmaster@weatherforyou.com

Copyright © 2014, WeatherForYou.com LLC. All rights reserved.